[[{"header":{"parameterUnit":"m.s-1","parameterCategory":1,"la1":30.2991,"la2":30.254,"lo1":-89.0895,"lo2":-89.0444,"dy":0.0017,"dx":0.0017,"nx":28,"ny":28,"refTime":"2024-06-11T09:00:00:Z","depth":0,"parameterNumber":2,"parameterNumberName":"U-component_of_WINDS"},"data":[0,0,0,0,0,0,0,0,0,0,0,0,0,0,0,0,0,0,0,0,0,0,0,0,0,0,0,0,0,0,0,0,0,0,0,0,0,0,0,0,0,0,0,0,0,0,0,0,0,0,0,0,0,0,0,0,0,0,-2.0703,-2.0702,0,-2.0615,-2.0614,-2.0613,-2.0518,-2.0516,-2.0515,-2.0514,-2.0425,-2.0424,-2.0423,0,0,0,0,0,0,0,0,0,0,0,0,0,-2.0792,-2.0791,-2.0703,-2.0702,-2.0701,-2.0615,-2.0614,-2.0613,-2.0518,-2.0516,-2.0515,-2.0513,-2.0426,-2.0424,-2.0423,0,0,0,0,0,0,0,0,0,0,0,0,0,-2.0734,-2.079,-2.0703,-2.0643,-2.0637,-2.0616,-2.0614,-2.0613,-2.0518,-2.0516,-2.0514,-2.0512,-2.0426,-2.0424,-2.0423,-2.0454,0,0,-2.0418,-2.0417,0,0,0,0,0,0,0,0,-2.0737,-2.0731,-2.0653,-2.0647,-2.064,-2.0575,-2.0613,-2.056,-2.0519,-2.0563,-2.0514,-2.0511,-2.0477,-2.0471,-2.0459,-2.045,-2.0446,-2.0418,-2.0417,-2.0416,-2.0416,0,0,0,0,0,0,0,-2.0741,-2.0734,-2.0668,-2.0652,-2.0644,-2.0622,-2.0611,-2.0602,-2.0533,-2.0559,-2.0552,-2.0543,-2.0473,-2.0461,-2.0456,-2.0445,-2.0418,-2.0416,-2.0415,-2.0415,-2.0461,-2.0463,0,0,0,0,0,0,-2.0754,-2.0738,-2.0671,-2.0666,-2.0685,-2.0622,-2.061,-2.0598,-2.0533,-2.0521,-2.0545,-2.0539,-2.0465,-2.0458,-2.0453,-2.0488,-2.0416,-2.0415,-2.0414,-2.0458,-2.0461,-2.0463,0,0,0,0,0,0,-2.0756,-2.0749,-2.0675,-2.07,-2.0689,-2.0622,-2.061,-2.0598,-2.0585,-2.0522,-2.0509,-2.0545,-2.0463,-2.0455,-2.0455,-2.0483,-2.0414,-2.0412,-2.0456,-2.0459,-2.0462,-2.0556,0,0,0,0,0,0,-2.0759,-2.075,-2.0761,-2.0701,-2.0688,-2.0678,-2.0612,-2.0597,-2.0583,-2.0574,-2.0519,-2.0507,-2.0461,-2.0458,-2.0454,-2.048,-2.0411,-2.0453,-2.0457,-2.0461,-2.055,-2.0562,-2.0573,0,0,0,0,0,-2.0763,-2.079,-2.0762,-2.0754,-2.0699,-2.068,-2.0672,-2.0617,-2.0585,-2.0596,-2.0556,-2.0509,-2.0481,-2.0459,-2.0453,-2.0479,-2.0451,-2.0456,-2.0461,-2.0546,-2.056,-2.0572,0,0,0,0,0,0,-2.0855,-2.0781,-2.0749,-2.0758,-2.0726,-2.0664,-2.0675,-2.0634,-2.0611,-2.0604,-2.0537,-2.0525,-2.0534,-2.0506,-2.0483,-2.0508,-2.0459,-2.0463,-2.0526,-2.0539,-2.055,-2.0557,-2.041,0,0,0,0,0,-2.0877,-2.0867,-2.0802,-2.0817,-2.0802,-2.0742,-2.0731,-2.0692,-2.0656,-2.0642,-2.0602,-2.057,-2.0554,-2.0544,-2.0526,-2.0546,-2.0534,-2.0561,-2.0572,-2.0581,-2.0586,-2.0598,-2.061,-2.048,-2.048,-2.0479,0,0,-2.0921,-2.0879,-2.0877,-2.0834,-2.0805,-2.0797,-2.0731,-2.0725,-2.0719,-2.0641,-2.064,-2.0609,-2.0569,-2.058,-2.0583,-2.0557,-2.062,-2.0588,-2.0596,-2.0595,-2.0604,-2.0617,-2.0628,-2.0483,-2.0482,-2.0482,0,0,-2.0998,-2.0965,-2.0974,-2.0946,-2.0903,-2.0863,-2.0865,-2.081,-2.0787,-2.0784,-2.0726,-2.0719,-2.0691,-2.0666,-2.065,-2.072,-2.0678,-2.0716,-2.0775,-2.0787,-2.0797,-2.0806,-2.0834,-2.0844,-2.0721,-2.0721,-2.0721,0,-2.1059,-2.1044,-2.0984,-2.0982,-2.0966,-2.0896,-2.0906,-2.0882,-2.0836,-2.0827,-2.0798,-2.0765,-2.0733,-2.0738,-2.0756,-2.0744,-2.0747,-2.0723,-2.08,-2.0808,-2.0816,-2.0842,-2.0852,-2.0726,-2.0725,-2.0725,-2.0724,0,-2.1122,-2.1113,-2.1126,-2.1083,-2.1068,-2.1073,-2.1015,-2.1007,-2.097,-2.0934,-2.0933,-2.0892,-2.0866,-2.0864,-2.0826,-2.0865,-2.0851,-2.0812,-2.0763,-2.0835,-2.0858,-2.0867,-2.0733,-2.0732,-2.073,-2.0729,0,0,-2.1255,-2.118,-2.1186,-2.1167,-2.1115,-2.1107,-2.1109,-2.1083,-2.108,-2.105,-2.1052,-2.1032,-2.0996,-2.0978,-2.0937,-2.0948,-2.101,-2.0908,-2.0906,-2.0931,-2.1054,-2.1085,-2.1097,-2.0981,-2.0983,-2.0984,-2.1058,0,-2.1325,-2.1323,-2.1271,-2.1285,-2.1278,-2.1212,-2.1214,-2.1183,-2.115,-2.1139,-2.1102,-2.109,-2.1043,-2.1032,-2.1039,-2.1001,-2.1034,-2.0995,-2.0984,-2.0985,-2.0999,-2.1109,-2.1141,-2.1213,-2.1066,-2.1068,-2.1069,0,-2.1406,-2.1382,-2.1396,-2.1346,-2.134,-2.1343,-2.1317,-2.1307,-2.1272,-2.1247,-2.1228,-2.1182,-2.1182,-2.1135,-2.1136,-2.1111,-2.1103,-2.1084,-2.1086,-2.1084,-2.1033,-2.1113,-2.1234,-2.1246,-2.1082,-2.1081,-2.108,0,-2.1505,-2.1476,-2.1481,-2.1466,-2.1407,-2.1411,-2.1387,-2.1349,-2.1338,-2.1315,-2.1308,-2.1285,-2.1273,-2.1258,-2.1208,-2.1178,-2.1217,-2.1164,-2.1198,-2.12,-2.121,-2.1211,-2.1335,-2.1202,-2.1202,-2.1202,-2.1202,0,-2.1589,-2.1601,-2.1525,-2.1529,-2.1541,-2.148,-2.1495,-2.1464,-2.1432,-2.1429,-2.137,-2.137,-2.1303,-2.1296,-2.1257,-2.1266,-2.126,-2.1242,-2.1232,-2.1248,-2.1251,-2.1244,-2.1239,-2.1205,-2.1204,-2.1203,-2.1203,0,-2.1702,-2.1651,-2.1654,-2.1598,-2.1584,-2.1596,-2.1549,-2.1551,-2.1514,-2.1512,-2.1509,-2.1452,-2.144,-2.1389,-2.1365,-2.1339,-2.1362,-2.134,-2.1374,-2.1368,-2.1406,-2.1404,-2.1531,-2.1546,-2.1402,-2.1404,-2.1405,0,-2.1761,-2.1769,-2.1714,-2.1709,-2.1687,-2.1678,-2.1667,-2.1608,-2.1599,-2.1561,-2.1568,-2.1552,-2.1536,-2.1521,-2.1478,-2.1461,-2.144,-2.1486,-2.1437,-2.1454,-2.1444,-2.1445,-2.1447,-2.1497,-2.1499,-2.15,-2.1501,0,-2.1871,-2.1846,-2.1831,-2.1809,-2.1797,-2.1777,-2.1753,-2.1752,-2.1687,-2.168,-2.1668,-2.1655,-2.1632,-2.1618,-2.1593,-2.1569,-2.1526,-2.1517,-2.1525,-2.1543,-2.1563,-2.1556,-2.1405,-2.1515,-2.1513,-2.1512,-2.1512,-2.1511,-2.196,-2.1965,-2.1929,-2.1915,-2.1891,-2.1871,-2.1871,-2.1835,-2.1823,-2.1799,-2.1765,-2.1759,-2.1726,-2.1688,-2.1668,-2.1663,-2.1638,-2.1648,-2.1651,-2.1655,-2.1665,-2.1563,-2.1658,-2.1657,-2.1657,-2.1657,-2.1656,0,-2.207,-2.2043,-2.2031,-2.2001,-2.1991,-2.195,-2.1922,-2.1917,-2.1911,-2.1884,-2.187,-2.1857,-2.1844,-2.1801,-2.1783,-2.1788,-2.1768,-2.1785,-2.1786,-2.1782,-2.1687,-2.1683,-2.1802,-2.1802,-2.1802,-2.1802,-2.1802,-2.1802,-2.2126,-2.2133,-2.2104,-2.21,-2.2073,-2.2066,-2.2054,-2.2036,-2.2014,-2.2003,-2.1991,-2.1963,-2.193,-2.191,-2.1897,-2.1884,-2.1882,-2.1907,-2.1889,-2.1802,-2.1788,-2.1774,-2.1771,-2.1906,-2.1906,-2.1984,-2.1985,-2.1986]},{"header":{"parameterUnit":"m.s-1","parameterCategory":1,"la1":30.2991,"la2":30.254,"lo1":-89.0895,"lo2":-89.0444,"dy":0.0017,"dx":0.0017,"nx":28,"ny":28,"refTime":"2024-06-11T09:00:00:Z","depth":0,"parameterNumber":3,"parameterNumberName":"V-component_of_WINDS"},"data":[0,0,0,0,0,0,0,0,0,0,0,0,0,0,0,0,0,0,0,0,0,0,0,0,0,0,0,0,0,0,0,0,0,0,0,0,0,0,0,0,0,0,0,0,0,0,0,0,0,0,0,0,0,0,0,0,0,0,1.0255,1.0255,0,1.0245,1.0245,1.0244,1.022,1.0219,1.0219,1.0218,1.0207,1.0207,1.0207,0,0,0,0,0,0,0,0,0,0,0,0,0,1.0252,1.0252,1.0255,1.0255,1.0255,1.0245,1.0245,1.0244,1.022,1.0219,1.0219,1.0218,1.0207,1.0207,1.0208,0,0,0,0,0,0,0,0,0,0,0,0,0,1.0248,1.0252,1.0255,1.0241,1.024,1.0245,1.0245,1.0244,1.022,1.0219,1.0219,1.0218,1.0207,1.0207,1.0208,1.0225,0,0,1.0208,1.0208,0,0,0,0,0,0,0,0,1.0249,1.0249,1.0243,1.0242,1.0241,1.0233,1.0239,1.0238,1.022,1.0228,1.0218,1.0218,1.0216,1.0216,1.0215,1.0224,1.0223,1.0208,1.0209,1.0209,1.0209,0,0,0,0,0,0,0,1.0249,1.0249,1.0251,1.0243,1.0242,1.0235,1.0234,1.0239,1.0226,1.0227,1.0225,1.0224,1.0215,1.0215,1.0215,1.0223,1.0208,1.0209,1.0209,1.0209,1.0243,1.0244,0,0,0,0,0,0,1.0251,1.0249,1.0251,1.0251,1.0243,1.0236,1.0234,1.0236,1.0226,1.0224,1.0225,1.0223,1.0215,1.0215,1.0215,1.0232,1.0209,1.0209,1.0209,1.0242,1.0243,1.0244,0,0,0,0,0,0,1.0251,1.0252,1.0252,1.0249,1.0249,1.0237,1.0239,1.0236,1.0236,1.0225,1.0222,1.0227,1.0215,1.0214,1.0222,1.0231,1.0209,1.0209,1.0242,1.0243,1.0244,1.0268,0,0,0,0,0,0,1.0251,1.0252,1.0259,1.025,1.0249,1.0259,1.024,1.0237,1.0237,1.0234,1.0226,1.0224,1.0214,1.0222,1.0222,1.0231,1.0209,1.0241,1.0242,1.0243,1.0266,1.027,1.0273,0,0,0,0,0,1.0251,1.0266,1.0259,1.0259,1.0257,1.026,1.026,1.0248,1.0238,1.0244,1.0236,1.0224,1.0231,1.0223,1.0223,1.0232,1.024,1.0242,1.0243,1.0265,1.0269,1.0273,0,0,0,0,0,0,1.0276,1.0265,1.0257,1.0269,1.0266,1.0256,1.0263,1.0253,1.0252,1.025,1.0235,1.0234,1.0243,1.0239,1.023,1.0247,1.0233,1.0235,1.0249,1.0253,1.0257,1.0257,1.021,0,0,0,0,0,1.0283,1.0287,1.0277,1.0288,1.0287,1.0276,1.0277,1.0268,1.0264,1.0262,1.0255,1.0251,1.0252,1.0253,1.0253,1.0266,1.0263,1.0273,1.0276,1.0279,1.028,1.0285,1.0288,1.025,1.025,1.025,0,0,1.0297,1.0292,1.0295,1.0293,1.029,1.0293,1.0275,1.0279,1.0281,1.0263,1.0269,1.0264,1.0258,1.0268,1.0272,1.0265,1.029,1.0281,1.0283,1.0283,1.0287,1.0291,1.0294,1.0251,1.0251,1.0251,0,0,1.0325,1.0321,1.033,1.0327,1.0321,1.0314,1.0316,1.0307,1.0303,1.0309,1.0295,1.0297,1.03,1.0296,1.0294,1.0319,1.0308,1.032,1.0336,1.0341,1.0344,1.0347,1.0354,1.0357,1.0322,1.0322,1.0322,0,1.0343,1.0347,1.0336,1.0341,1.034,1.0323,1.0331,1.0329,1.0324,1.0323,1.0315,1.0317,1.0312,1.032,1.0326,1.0326,1.0327,1.032,1.0345,1.0347,1.035,1.0356,1.0359,1.0323,1.0323,1.0323,1.0323,0,1.0369,1.0372,1.038,1.0375,1.0375,1.0382,1.0371,1.0372,1.0364,1.0356,1.0362,1.0356,1.0354,1.0356,1.0348,1.0362,1.0357,1.0348,1.0333,1.0355,1.0361,1.0363,1.0325,1.0325,1.0324,1.0324,0,0,1.041,1.0399,1.0402,1.0399,1.0392,1.0394,1.0399,1.0398,1.0398,1.0396,1.0399,1.0401,1.0391,1.039,1.0381,1.0385,1.0403,1.0375,1.0374,1.0379,1.0417,1.0423,1.0426,1.0396,1.0397,1.0397,1.0417,0,1.0434,1.0443,1.0432,1.0443,1.0445,1.0429,1.0434,1.043,1.0423,1.0424,1.0417,1.0418,1.0406,1.0404,1.0408,1.04,1.0411,1.0399,1.0398,1.0398,1.0398,1.043,1.0436,1.0455,1.0419,1.042,1.042,0,1.0462,1.0461,1.0471,1.0463,1.0463,1.0468,1.0464,1.0466,1.046,1.0455,1.0453,1.0442,1.0446,1.0433,1.0438,1.043,1.0429,1.0425,1.0426,1.0424,1.0409,1.0427,1.0461,1.0463,1.0424,1.0424,1.0423,0,1.0489,1.0489,1.0495,1.0494,1.0484,1.0487,1.0483,1.0477,1.0477,1.0474,1.0473,1.0471,1.047,1.0468,1.0457,1.0449,1.0462,1.0448,1.0456,1.0457,1.0458,1.0458,1.0491,1.0461,1.0461,1.0461,1.0461,0,1.0515,1.0522,1.0507,1.051,1.0517,1.0505,1.0512,1.0506,1.0501,1.0503,1.049,1.0492,1.0478,1.0478,1.0469,1.0473,1.0473,1.0468,1.0466,1.0468,1.0469,1.0466,1.0464,1.0462,1.0462,1.0462,1.0461,0,1.0545,1.0535,1.0541,1.0531,1.0529,1.0534,1.0526,1.0528,1.0521,1.0523,1.0523,1.0512,1.0511,1.05,1.0498,1.0492,1.0498,1.0494,1.05,1.0498,1.0506,1.0504,1.0537,1.054,1.051,1.051,1.051,0,1.0561,1.0566,1.0557,1.0557,1.0554,1.0554,1.0553,1.0542,1.0541,1.0535,1.0538,1.0536,1.0534,1.0534,1.0525,1.0522,1.0517,1.0528,1.0516,1.0518,1.0514,1.0514,1.0513,1.053,1.0531,1.0531,1.0531,0,1.059,1.0585,1.0585,1.0582,1.0581,1.0579,1.0575,1.0576,1.0563,1.0563,1.0562,1.0561,1.0558,1.0556,1.0551,1.0547,1.0536,1.0535,1.0537,1.0539,1.0541,1.0538,1.0505,1.0534,1.0534,1.0534,1.0533,1.0533,1.0612,1.0615,1.0609,1.0608,1.0605,1.0602,1.0603,1.0596,1.0596,1.0592,1.0585,1.0585,1.0579,1.0572,1.0568,1.0568,1.0562,1.0564,1.0564,1.0565,1.0566,1.0543,1.0567,1.0567,1.0567,1.0567,1.0567,0,1.0639,1.0634,1.0634,1.063,1.0629,1.062,1.0616,1.0616,1.0616,1.0611,1.0609,1.0608,1.0606,1.0597,1.0593,1.0594,1.0589,1.0594,1.0593,1.0591,1.0572,1.057,1.0598,1.0598,1.0598,1.0598,1.0598,1.0598,1.0653,1.0657,1.0651,1.0653,1.0648,1.0648,1.0646,1.0643,1.0639,1.0638,1.0636,1.063,1.0624,1.062,1.0617,1.0615,1.0613,1.0619,1.0614,1.0596,1.0593,1.059,1.0588,1.0619,1.0619,1.0634,1.0634,1.0634]}]]